Погода в Стегаловке

Россия / Липецкая область     52°24′36″N   38°19′07″E
темп.,
°C
ветер,
м/с
пор.,
м/с
влажн.,
%
обл.,
%
осадки,
мм/ч
давл.,
гПа
погр.,
м
9 марта, вт
вт900:00−9ссз2291100 0.2 101022
03:00−13ссз339085 0.2 101136
06:00−13ссз379470 0.0 1013145
09:00−12с479377 0.0 1015261
12:00−10ссз468840 0.0 1016455
15:00−10ссз468668 0.0 1017642
18:00−12сз349190 0.0 101967
21:00−15сз349352 0.0 102160
10 марта, ср
ср1000:00−16сз349640 0.0 102250
03:00−18сз349323 0.0 102440
06:00−19сз34940 0.0 102547
09:00−17сз34930 0.0 1027166
12:00−14ссз248765 0.0 1027349
15:00−12ссз228882 0.1 1026375
18:00−13св2396100 0.3 1026175
21:00−16св369598 0.4 1028199
11 марта, чт
чт1100:00−19всв3792100 0.0 1029180
03:00−23всв339567 0.0 103144
06:00−24всв33960 0.0 103245
09:00−22всв34940 0.0 1033151
12:00−17в34820 0.0 1034320
15:00−14в23790 0.0 1033395
18:00−17св23880 0.0 103320
21:00−19в23890 0.0 103420
12 марта, пт
пт1200:00−20вюв23880 0.0 103420
03:00−19юв33830 0.0 103422
06:00−19ююв33800 0.0 103421
09:00−16ююв37830 0.0 1033207
12:00−10ююв59760 0.0 1032437
15:00−8ю597627 0.0 1031658
18:00−10юв41079100 0.0 1029204
21:00−10ююв51375100 0.0 1029289
13 марта, сб
сб1300:00−10ю5157597 0.0 1028396
03:00−9ю6157299 0.0 1026537
06:00−8ю71571100 0.0 1025591
09:00−7ю81671100 0.0 1024738
12:00−6ю91594100 0.9 1023792
15:00−4ююз81394100 2.1 1022810
18:00−3ююз71395100 0.9 1021675
21:00−3ююз61395100 1.6 1021556